STARLINK-1263 (45405 NORAD) Tracking and Keplerian Element Data

This shows tracking and keplerian element data for the satellite.

Feedback or suggestion? Click here.




ElementValue
Catalog45405
NameSTARLINK-1263
Epoch Orbit1881
Epoch Day196.91667824
Epoch Year2020
RAAN41.2449
Inclination53.0001
Eccentricity0.0001342
Argument of Perigee86.4069
Mean Anonmoly119.1195
Mean Motion15.05572311
Decay Rate9.606E-05
L11 45405U 20019AX 20196.91667824 .00009606 00000-0 67771-3 0 9993
L22 45405 53.0001 41.2449 0001342 86.4069 119.1195 15.05572311 18811

Live tracking and technical data element details for STARLINK-1263 (NORAD 45405). STARLINK-1263 can be tracked NOW for your location showing map with azimuth and elevation plus other details from your city location.

Track the satellite on the map from your city or location and see movement details for azimuth, elevation, latitude, longitude, range, height, and movement on the map or in text.







IsCatalogInMostPopularTable: catalog: 45405, numindb: 29
Update: records affected: 1



GetName: 45405 STARLINK-1263

Hit Count: updated at: Thu, 16 Jul 2020 04:30:35 GMT